Time,TemperatureF,DewpointF,PressureIn,WindDirection,WindDirectionDegrees,WindSpeedMPH,WindSpeedGustMPH,Humidity,HourlyPrecipIn,Conditions,Clouds,dailyrainin,SolarRadiationWatts/m^2,SoftwareType,DateUTC
2013-06-29 00:04:00,53.6,50.0,30.07,South,172,0.0,1.0,86,0.00,,,0.00,0,weatherlink.com 1.10,2013-06-28 22:04:00,
2013-06-29 00:19:00,53.0,49.0,30.07,South,172,0.0,1.0,87,0.00,,,0.00,0,weatherlink.com 1.10,2013-06-28 22:19:00,
2013-06-29 00:34:00,52.6,49.0,30.07,SSW,193,0.0,1.0,88,0.00,,,0.00,0,weatherlink.com 1.10,2013-06-28 22:34:00,
2013-06-29 00:49:00,52.2,49.0,30.07,SSW,193,0.0,0.0,88,0.00,,,0.00,0,weatherlink.com 1.10,2013-06-28 22:49:00,
2013-06-29 01:04:00,51.9,49.0,30.07,WSW,237,0.0,1.0,89,0.00,,,0.00,0,weatherlink.com 1.10,2013-06-28 23:04:00,
2013-06-29 01:19:00,52.0,49.0,30.07,SW,236,0.0,1.0,89,0.00,,,0.00,0,weatherlink.com 1.10,2013-06-28 23:19:00,
2013-06-29 01:34:00,51.8,48.0,30.07,SW,223,0.0,1.0,88,0.00,,,0.00,0,weatherlink.com 1.10,2013-06-28 23:34:00,
2013-06-29 01:49:00,51.3,48.0,30.07,SW,218,0.0,1.0,89,0.00,,,0.00,0,weatherlink.com 1.10,2013-06-28 23:49:00,
2013-06-29 02:04:00,50.9,48.0,30.07,SW,222,0.0,1.0,90,0.00,,,0.00,0,weatherlink.com 1.10,2013-06-29 00:04:00,
2013-06-29 02:19:00,50.5,48.0,30.06,SSW,213,0.0,0.0,90,0.00,,,0.00,0,weatherlink.com 1.10,2013-06-29 00:19:00,
2013-06-29 02:34:00,50.0,47.0,30.06,SSW,213,0.0,1.0,90,0.00,,,0.00,0,weatherlink.com 1.10,2013-06-29 00:34:00,
2013-06-29 02:49:00,49.6,47.0,30.06,SSW,213,0.0,1.0,91,0.00,,,0.00,0,weatherlink.com 1.10,2013-06-29 00:49:00,
2013-06-29 03:05:00,49.2,47.0,30.06,SSW,213,0.0,1.0,91,0.00,,,0.00,0,weatherlink.com 1.10,2013-06-29 01:05:00,
2013-06-29 03:20:00,49.1,47.0,30.05,WSW,241,0.0,0.0,91,0.00,,,0.00,0,weatherlink.com 1.10,2013-06-29 01:20:00,
2013-06-29 03:35:00,48.8,47.0,30.05,SSW,193,0.0,0.0,92,0.00,,,0.00,0,weatherlink.com 1.10,2013-06-29 01:35:00,
2013-06-29 03:50:00,48.5,47.0,30.05,SSW,194,0.0,1.0,93,0.00,,,0.00,0,weatherlink.com 1.10,2013-06-29 01:50:00,
2013-06-29 04:05:00,48.4,47.0,30.05,South,190,0.0,1.0,93,0.00,,,0.00,0,weatherlink.com 1.10,2013-06-29 02:05:00,
2013-06-29 04:20:00,48.5,47.0,30.05,SW,217,0.0,1.0,93,0.00,,,0.00,0,weatherlink.com 1.10,2013-06-29 02:20:00,
2013-06-29 04:35:00,48.3,46.0,30.05,SSW,211,0.0,1.0,92,0.00,,,0.00,0,weatherlink.com 1.10,2013-06-29 02:35:00,
2013-06-29 04:50:00,48.0,46.0,30.04,SSW,211,0.0,0.0,93,0.00,,,0.00,0,weatherlink.com 1.10,2013-06-29 02:50:00,
2013-06-29 05:05:00,47.9,46.0,30.04,SSW,211,0.0,0.0,93,0.00,,,0.00,5,weatherlink.com 1.10,2013-06-29 03:05:00,
2013-06-29 05:20:00,47.9,46.0,30.04,SSW,211,0.0,0.0,93,0.00,,,0.00,12,weatherlink.com 1.10,2013-06-29 03:20:00,
2013-06-29 05:35:00,48.4,47.0,30.04,SW,227,1.0,2.0,93,0.00,,,0.00,21,weatherlink.com 1.10,2013-06-29 03:35:00,
2013-06-29 05:50:00,49.1,47.0,30.04,SW,225,3.0,3.0,92,0.00,,,0.00,30,weatherlink.com 1.10,2013-06-29 03:50:00,
2013-06-29 06:05:00,49.9,47.0,30.05,SW,228,1.0,2.0,91,0.00,,,0.00,40,weatherlink.com 1.10,2013-06-29 04:05:00,
2013-06-29 06:20:00,50.2,47.0,30.04,SSW,206,1.0,2.0,90,0.00,,,0.00,54,weatherlink.com 1.10,2013-06-29 04:20:00,
2013-06-29 06:35:00,50.9,48.0,30.04,WSW,252,0.0,2.0,90,0.00,,,0.00,74,weatherlink.com 1.10,2013-06-29 04:35:00,
2013-06-29 06:50:00,51.6,48.0,30.04,WSW,237,0.0,3.0,88,0.00,,,0.00,95,weatherlink.com 1.10,2013-06-29 04:50:00,
2013-06-29 07:05:00,52.4,49.0,30.04,SSW,204,0.0,3.0,87,0.00,,,0.00,132,weatherlink.com 1.10,2013-06-29 05:05:00,
2013-06-29 07:20:00,53.4,49.0,30.04,South,173,0.0,3.0,86,0.00,,,0.00,178,weatherlink.com 1.10,2013-06-29 05:20:00,
2013-06-29 07:35:00,54.6,50.0,30.05,SW,236,0.0,3.0,85,0.00,,,0.00,200,weatherlink.com 1.10,2013-06-29 05:35:00,
2013-06-29 07:50:00,55.5,50.0,30.04,SW,221,1.0,4.0,83,0.00,,,0.00,186,weatherlink.com 1.10,2013-06-29 05:50:00,
2013-06-29 08:05:00,56.4,51.0,30.04,South,190,0.0,3.0,81,0.00,,,0.00,200,weatherlink.com 1.10,2013-06-29 06:05:00,
2013-06-29 08:20:00,56.8,51.0,30.04,SW,236,1.0,3.0,80,0.00,,,0.00,223,weatherlink.com 1.10,2013-06-29 06:20:00,
2013-06-29 08:35:00,58.0,51.0,30.04,SW,233,2.0,4.0,77,0.00,,,0.00,304,weatherlink.com 1.10,2013-06-29 06:35:00,
2013-06-29 08:57:00,60.0,52.0,30.03,West,264,0.0,3.0,75,0.00,,,0.00,345,weatherlink.com 1.10,2013-06-29 06:57:00,
2013-06-29 09:06:00,60.7,52.0,30.03,WSW,245,1.0,6.0,73,0.00,,,0.00,348,weatherlink.com 1.10,2013-06-29 07:06:00,
2013-06-29 09:21:00,61.6,52.0,30.02,SSW,213,1.0,4.0,71,0.00,,,0.00,376,weatherlink.com 1.10,2013-06-29 07:21:00,
2013-06-29 09:36:00,61.5,52.0,30.02,SW,223,0.0,4.0,72,0.00,,,0.00,278,weatherlink.com 1.10,2013-06-29 07:36:00,
2013-06-29 09:51:00,61.8,51.0,30.02,SE,139,1.0,4.0,69,0.00,,,0.00,279,weatherlink.com 1.10,2013-06-29 07:51:00,
2013-06-29 10:06:00,61.8,51.0,30.02,SW,227,1.0,5.0,69,0.00,,,0.00,294,weatherlink.com 1.10,2013-06-29 08:06:00,
2013-06-29 10:21:00,62.1,52.0,30.02,South,181,1.0,5.0,70,0.00,,,0.00,357,weatherlink.com 1.10,2013-06-29 08:21:00,
2013-06-29 10:36:00,63.0,52.0,30.01,South,186,2.0,4.0,67,0.00,,,0.00,427,weatherlink.com 1.10,2013-06-29 08:36:00,
2013-06-29 10:51:00,63.8,53.0,30.01,SW,223,3.0,4.0,69,0.00,,,0.00,461,weatherlink.com 1.10,2013-06-29 08:51:00,
2013-06-29 11:06:00,66.1,53.0,30.00,WSW,241,1.0,5.0,64,0.00,,,0.00,612,weatherlink.com 1.10,2013-06-29 09:06:00,
2013-06-29 11:21:00,66.1,52.0,30.00,WSW,240,2.0,8.0,60,0.00,,,0.00,167,weatherlink.com 1.10,2013-06-29 09:21:00,
2013-06-29 11:36:00,65.8,52.0,30.00,SW,220,0.0,4.0,61,0.00,,,0.00,243,weatherlink.com 1.10,2013-06-29 09:36:00,
2013-06-29 11:51:00,67.5,52.0,29.99,SSW,208,0.0,7.0,58,0.00,,,0.00,513,weatherlink.com 1.10,2013-06-29 09:51:00,
2013-06-29 12:06:00,68.2,51.0,29.99,WSW,246,0.0,8.0,54,0.00,,,0.00,596,weatherlink.com 1.10,2013-06-29 10:06:00,
2013-06-29 12:21:00,66.4,51.0,29.99,SE,129,3.0,6.0,57,0.00,,,0.00,309,weatherlink.com 1.10,2013-06-29 10:21:00,
2013-06-29 12:36:00,66.2,50.0,29.99,WSW,250,3.0,6.0,57,0.00,,,0.00,295,weatherlink.com 1.10,2013-06-29 10:36:00,
2013-06-29 12:51:00,66.7,53.0,29.99,NNW,347,0.0,6.0,61,0.00,,,0.00,425,weatherlink.com 1.10,2013-06-29 10:51:00,
2013-06-29 13:06:00,67.5,50.0,29.98,West,273,1.0,8.0,54,0.00,,,0.00,318,weatherlink.com 1.10,2013-06-29 11:06:00,
2013-06-29 13:21:00,66.8,52.0,29.98,West,270,2.0,6.0,60,0.00,,,0.00,564,weatherlink.com 1.10,2013-06-29 11:21:00,
2013-06-29 13:36:00,66.9,51.0,29.98,South,177,0.0,6.0,58,0.00,,,0.00,327,weatherlink.com 1.10,2013-06-29 11:36:00,
2013-06-29 13:51:00,66.2,51.0,29.97,WSW,237,1.0,5.0,59,0.00,,,0.00,357,weatherlink.com 1.10,2013-06-29 11:51:00,
2013-06-29 14:06:00,66.9,51.0,29.97,South,175,0.0,6.0,58,0.00,,,0.00,487,weatherlink.com 1.10,2013-06-29 12:06:00,
2013-06-29 14:21:00,68.8,52.0,29.96,SSE,167,2.0,4.0,56,0.00,,,0.00,668,weatherlink.com 1.10,2013-06-29 12:21:00,
2013-06-29 14:36:00,67.7,50.0,29.96,SSW,204,4.0,6.0,53,0.00,,,0.00,267,weatherlink.com 1.10,2013-06-29 12:36:00,
2013-06-29 14:51:00,67.3,50.0,29.96,WSW,253,1.0,6.0,55,0.00,,,0.00,90,weatherlink.com 1.10,2013-06-29 12:51:00,
2013-06-29 15:06:00,65.4,50.0,29.96,SSW,207,1.0,6.0,58,0.00,,,0.00,60,weatherlink.com 1.10,2013-06-29 13:06:00,
2013-06-29 15:21:00,65.7,51.0,29.96,West,278,1.0,4.0,60,0.00,,,0.00,722,weatherlink.com 1.10,2013-06-29 13:21:00,
2013-06-29 15:36:00,68.8,51.0,29.96,SW,223,4.0,9.0,53,0.00,,,0.00,427,weatherlink.com 1.10,2013-06-29 13:36:00,
2013-06-29 15:51:00,67.2,52.0,29.96,South,188,0.0,6.0,59,0.00,,,0.00,348,weatherlink.com 1.10,2013-06-29 13:51:00,
2013-06-29 16:06:00,66.1,53.0,29.96,SW,230,3.0,5.0,62,0.00,,,0.00,200,weatherlink.com 1.10,2013-06-29 14:06:00,
2013-06-29 16:21:00,65.6,51.0,29.96,South,191,0.0,5.0,60,0.00,,,0.00,272,weatherlink.com 1.10,2013-06-29 14:21:00,
2013-06-29 16:36:00,65.9,52.0,29.96,South,173,2.0,6.0,61,0.00,,,0.00,260,weatherlink.com 1.10,2013-06-29 14:36:00,
2013-06-29 16:51:00,66.0,51.0,29.96,SW,221,2.0,6.0,59,0.00,,,0.00,265,weatherlink.com 1.10,2013-06-29 14:51:00,
2013-06-29 17:06:00,65.6,50.0,29.96,East,93,0.0,6.0,58,0.00,,,0.00,162,weatherlink.com 1.10,2013-06-29 15:06:00,
2013-06-29 17:21:00,65.0,51.0,29.96,SW,232,1.0,6.0,61,0.00,,,0.00,151,weatherlink.com 1.10,2013-06-29 15:21:00,
2013-06-29 17:36:00,64.8,52.0,29.97,SW,222,0.0,5.0,64,0.00,,,0.00,139,weatherlink.com 1.10,2013-06-29 15:36:00,
2013-06-29 17:51:00,64.4,52.0,29.97,SSW,198,0.0,4.0,65,0.00,,,0.00,76,weatherlink.com 1.10,2013-06-29 15:51:00,
2013-06-29 18:06:00,63.4,52.0,29.97,SW,226,0.0,6.0,67,0.00,,,0.00,109,weatherlink.com 1.10,2013-06-29 16:06:00,
2013-06-29 18:21:00,62.9,52.0,29.97,WSW,242,0.0,6.0,68,0.00,,,0.00,86,weatherlink.com 1.10,2013-06-29 16:21:00,
2013-06-29 18:36:00,62.7,52.0,29.98,SW,232,1.0,5.0,69,0.00,,,0.00,118,weatherlink.com 1.10,2013-06-29 16:36:00,
2013-06-29 18:51:00,62.8,52.0,29.98,SSW,194,0.0,3.0,69,0.00,,,0.00,109,weatherlink.com 1.10,2013-06-29 16:51:00,
2013-06-29 19:06:00,62.6,51.0,29.98,WSW,242,2.0,7.0,67,0.00,,,0.00,102,weatherlink.com 1.10,2013-06-29 17:06:00,
2013-06-29 19:21:00,62.5,52.0,29.98,WNW,298,1.0,4.0,68,0.00,,,0.00,98,weatherlink.com 1.10,2013-06-29 17:21:00,
2013-06-29 19:37:00,62.3,52.0,29.98,SW,236,1.0,7.0,70,0.00,,,0.00,72,weatherlink.com 1.10,2013-06-29 17:37:00,
2013-06-29 19:51:00,61.7,53.0,29.98,SW,222,0.0,3.0,72,0.00,,,0.00,44,weatherlink.com 1.10,2013-06-29 17:51:00,
2013-06-29 20:06:00,61.1,52.0,29.98,SW,224,0.0,3.0,73,0.00,,,0.00,19,weatherlink.com 1.10,2013-06-29 18:06:00,
2013-06-29 20:21:00,60.6,53.0,29.98,SSE,150,0.0,2.0,75,0.00,,,0.00,19,weatherlink.com 1.10,2013-06-29 18:21:00,
2013-06-29 20:36:00,60.3,52.0,29.99,SW,221,0.0,2.0,75,0.00,,,0.00,14,weatherlink.com 1.10,2013-06-29 18:36:00,
2013-06-29 20:52:00,60.2,52.0,29.99,WSW,247,1.0,3.0,75,0.00,,,0.00,7,weatherlink.com 1.10,2013-06-29 18:52:00,
2013-06-29 21:07:00,60.0,53.0,29.99,WSW,255,0.0,2.0,77,0.00,,,0.00,0,weatherlink.com 1.10,2013-06-29 19:07:00,
2013-06-29 21:22:00,59.7,53.0,30.00,SW,224,0.0,1.0,78,0.00,,,0.00,0,weatherlink.com 1.10,2013-06-29 19:22:00,
2013-06-29 21:37:00,59.4,53.0,30.00,SW,224,0.0,1.0,79,0.00,,,0.00,0,weatherlink.com 1.10,2013-06-29 19:37:00,
2013-06-29 21:52:00,59.2,53.0,30.01,SW,221,0.0,1.0,79,0.00,,,0.00,0,weatherlink.com 1.10,2013-06-29 19:52:00,
2013-06-29 22:07:00,59.0,53.0,30.01,WSW,240,0.0,1.0,80,0.00,,,0.00,0,weatherlink.com 1.10,2013-06-29 20:07:00,
2013-06-29 22:22:00,58.9,53.0,30.01,SSW,208,0.0,2.0,80,0.00,,,0.00,0,weatherlink.com 1.10,2013-06-29 20:22:00,
2013-06-29 22:37:00,58.8,53.0,30.02,SW,232,0.0,2.0,81,0.00,,,0.00,0,weatherlink.com 1.10,2013-06-29 20:37:00,
2013-06-29 22:52:00,58.7,53.0,30.02,WSW,246,0.0,2.0,82,0.00,,,0.00,0,weatherlink.com 1.10,2013-06-29 20:52:00,
2013-06-29 23:07:00,58.7,53.0,30.02,SSW,208,0.0,1.0,81,0.00,,,0.00,0,weatherlink.com 1.10,2013-06-29 21:07:00,
2013-06-29 23:22:00,58.6,53.0,30.03,SSW,209,0.0,2.0,82,0.00,,,0.00,0,weatherlink.com 1.10,2013-06-29 21:22:00,
2013-06-29 23:37:00,58.4,53.0,30.03,North,360,1.0,2.0,82,0.00,,,0.00,0,weatherlink.com 1.10,2013-06-29 21:37:00,
2013-06-29 23:52:00,58.1,54.0,30.04,WNW,291,1.0,5.0,87,0.00,,,0.00,0,weatherlink.com 1.10,2013-06-29 21:52:00,